Terug naar catalogus

COSMOS 2251 DEB

ActiefLEO
NORAD 33932·DEBRIS·🇷🇺 Russia

Gelanceerd Jun 16, 1993 vanaf Plesetsk Cosmodrome

Loading…

Volgende Passages (komende 24 uur)

TLE

VersSource: Space-Track

Epoch: Sep 14, 2026, 10:37 UTC

1 33932U 93036EM  26257.44299074  .00000712  00000-0  23555-3 0  9995
2 33932  74.0341 167.1220 0036679 180.7533 179.3573 14.39385904919648

Volg COSMOS 2251 DEB in realtime met AllMySat

Download on the App Store